| time (UTC) | temp F | wind direction | speed MPH | gust MPH | rain 1hr in | rain 24hr in | rain mn in | humidity % | barometer mb |
| 20260506061537 | 71 | 360 | 3.0 | 5.0 | 0.00 | 0.00 | 0.00 | 40 | 1010.2 |
| 20260506044546 | 71 | 0 | 0.0 | 2.0 | 0.00 | 0.00 | 0.00 | 39 | 1009.9 |
| 20260506043043 | 71 | 360 | 2.0 | 3.0 | 0.00 | 0.00 | 0.00 | 38 | 1009.9 |
| 20260506041543 | 72 | 360 | 2.0 | 4.0 | 0.00 | 0.00 | 0.00 | 37 | 1009.8 |
| 20260506040044 | 73 | 360 | 2.0 | 4.0 | 0.00 | 0.00 | 0.00 | 37 | 1009.6 |
| 20260506034557 | 73 | 360 | 2.0 | 6.0 | 0.00 | 0.00 | 0.00 | 37 | 1009.5 |
| 20260506033038 | 72 | 360 | 4.0 | 6.0 | 0.00 | 0.00 | 0.00 | 38 | 1009.2 |
| 20260506031544 | 72 | 360 | 5.0 | 8.0 | 0.00 | 0.00 | 0.00 | 38 | 1009.0 |
| 20260506030044 | 73 | 360 | 4.0 | 6.0 | 0.00 | 0.00 | 0.00 | 37 | 1009.1 |
| 20260506024557 | 71 | 360 | 5.0 | 8.0 | 0.00 | 0.00 | 0.00 | 39 | 1008.8 |
| 20260506023041 | 72 | 360 | 6.0 | 9.0 | 0.00 | 0.00 | 0.00 | 38 | 1008.8 |
| 20260506021541 | 72 | 360 | 6.0 | 9.0 | 0.00 | 0.00 | 0.00 | 36 | 1008.9 |
| 20260506020037 | 74 | 360 | 7.0 | 9.0 | 0.00 | 0.00 | 0.00 | 34 | 1008.7 |
| 20260506014547 | 75 | 360 | 7.0 | 10.0 | 0.00 | 0.00 | 0.00 | 31 | 1008.5 |
| 20260506013100 | 77 | 360 | 8.0 | 11.0 | 0.00 | 0.00 | 0.00 | 29 | 1008.6 |
| 20260506011544 | 78 | 360 | 9.0 | 14.0 | 0.00 | 0.00 | 0.00 | 28 | 1008.5 |
| 20260506010043 | 79 | 360 | 13.0 | 19.0 | 0.00 | 0.00 | 0.00 | 27 | 1008.6 |
| 20260506004538 | 79 | 360 | 14.0 | 23.0 | 0.00 | 0.00 | 0.00 | 27 | 1008.7 |
| 20260506003039 | 80 | 360 | 13.0 | 19.0 | 0.00 | 0.00 | 0.00 | 26 | 1008.7 |
| 20260506001546 | 80 | 360 | 11.0 | 22.0 | 0.00 | 0.00 | 0.00 | 27 | 1008.7 |
| 20260506000044 | 80 | 360 | 14.0 | 23.0 | 0.00 | 0.00 | 0.00 | 26 | 1008.7 |
| 20260505234543 | 80 | 360 | 17.0 | 29.0 | 0.00 | 0.00 | 0.00 | 27 | 1008.8 |
| 20260505233041 | 80 | 360 | 18.0 | 25.0 | 0.00 | 0.00 | 0.00 | 27 | 1008.8 |
| 20260505231541 | 79 | 360 | 19.0 | 27.0 | 0.00 | 0.00 | 0.00 | 28 | 1008.6 |
| 20260505230051 | 78 | 360 | 18.0 | 26.0 | 0.00 | 0.00 | 0.00 | 29 | 1008.7 |
| 20260505224537 | 78 | 360 | 19.0 | 25.0 | 0.00 | 0.00 | 0.00 | 30 | 1009.1 |
| 20260505223055 | 76 | 360 | 19.0 | 26.0 | 0.00 | 0.00 | 0.00 | 31 | 1009.2 |
| 20260505221544 | 76 | 360 | 17.0 | 24.0 | 0.00 | 0.00 | 0.00 | 32 | 1009.1 |
| 20260505220046 | 76 | 360 | 19.0 | 26.0 | 0.00 | 0.00 | 0.00 | 32 | 1009.4 |
| 20260505214541 | 76 | 360 | 19.0 | 27.0 | 0.00 | 0.00 | 0.00 | 31 | 1009.5 |
| 20260505213051 | 76 | 360 | 17.0 | 28.0 | 0.00 | 0.00 | 0.00 | 30 | 1009.7 |
| 20260505211537 | 76 | 360 | 23.0 | 31.0 | 0.00 | 0.00 | 0.00 | 29 | 1009.8 |
| 20260505210038 | 77 | 360 | 23.0 | 31.0 | 0.00 | 0.00 | 0.00 | 28 | 1010.1 |
| 20260505204542 | 78 | 360 | 20.0 | 27.0 | 0.00 | 0.00 | 0.00 | 28 | 1010.3 |
| 20260505203050 | 77 | 360 | 19.0 | 26.0 | 0.00 | 0.00 | 0.00 | 28 | 1010.2 |
| 20260505201542 | 78 | 360 | 19.0 | 25.0 | 0.00 | 0.00 | 0.00 | 28 | 1010.3 |
| 20260505200037 | 78 | 360 | 18.0 | 26.0 | 0.00 | 0.00 | 0.00 | 28 | 1010.3 |
| 20260505194555 | 78 | 360 | 18.0 | 25.0 | 0.00 | 0.00 | 0.00 | 29 | 1010.2 |
| 20260505193043 | 77 | 360 | 15.0 | 19.0 | 0.00 | 0.00 | 0.00 | 29 | 1010.5 |
| 20260505191543 | 78 | 360 | 11.0 | 19.0 | 0.00 | 0.00 | 0.00 | 29 | 1010.5 |
| 20260505190043 | 76 | 360 | 14.0 | 21.0 | 0.00 | 0.00 | 0.00 | 28 | 1010.6 |
| 20260505184541 | 77 | 360 | 11.0 | 18.0 | 0.00 | 0.00 | 0.00 | 28 | 1010.8 |
| 20260505183051 | 77 | 360 | 11.0 | 20.0 | 0.00 | 0.00 | 0.00 | 27 | 1011.1 |
| 20260505181541 | 77 | 360 | 13.0 | 18.0 | 0.00 | 0.00 | 0.00 | 27 | 1011.1 |
| 20260505180054 | 77 | 360 | 11.0 | 17.0 | 0.00 | 0.00 | 0.00 | 27 | 1011.2 |
| 20260505174546 | 77 | 360 | 13.0 | 21.0 | 0.00 | 0.00 | 0.00 | 28 | 1011.1 |
| 20260505173044 | 76 | 360 | 11.0 | 20.0 | 0.00 | 0.00 | 0.00 | 28 | 1010.9 |
| 20260505171544 | 76 | 360 | 13.0 | 20.0 | 0.00 | 0.00 | 0.00 | 29 | 1010.9 |
| 20260505170043 | 76 | 360 | 13.0 | 22.0 | 0.00 | 0.00 | 0.00 | 29 | 1011.0 |
| 20260505164557 | 75 | 360 | 18.0 | 24.0 | 0.00 | 0.00 | 0.00 | 29 | 1010.8 |
| 20260505163048 | 75 | 360 | 15.0 | 22.0 | 0.00 | 0.00 | 0.00 | 29 | 1010.8 |
| 20260505161542 | 75 | 360 | 15.0 | 19.0 | 0.00 | 0.00 | 0.00 | 30 | 1010.8 |
| 20260505153059 | 73 | 360 | 12.0 | 15.0 | 0.00 | 0.00 | 0.00 | 32 | 1010.8 |
| 20260505151548 | 73 | 360 | 7.0 | 11.0 | 0.00 | 0.00 | 0.00 | 34 | 1010.5 |
| 20260505124543 | 68 | 360 | 5.0 | 6.0 | 0.00 | 0.00 | 0.00 | 38 | 1009.0 |
| 20260505123045 | 68 | 360 | 3.0 | 5.0 | 0.00 | 0.00 | 0.00 | 39 | 1008.8 |
| 20260505121549 | 68 | 360 | 1.0 | 3.0 | 0.00 | 0.00 | 0.00 | 37 | 1008.7 |
| 20260505120038 | 66 | 0 | 0.0 | 4.0 | 0.00 | 0.00 | 0.00 | 41 | 1008.6 |
| 20260505114541 | 67 | 360 | 1.0 | 3.0 | 0.00 | 0.00 | 0.00 | 40 | 1008.4 |
| 20260505113044 | 66 | 360 | 0.0 | 3.0 | 0.00 | 0.00 | 0.00 | 42 | 1008.3 |
| 20260505111552 | 66 | 360 | 2.0 | 4.0 | 0.00 | 0.00 | 0.00 | 43 | 1008.3 |
| 20260505101537 | 66 | 360 | 7.0 | 9.0 | 0.00 | 0.00 | 0.00 | 41 | 1008.2 |
| 20260505100047 | 68 | 360 | 6.0 | 8.0 | 0.00 | 0.00 | 0.00 | 38 | 1007.9 |
| 20260505094544 | 69 | 360 | 6.0 | 10.0 | 0.00 | 0.00 | 0.00 | 37 | 1007.8 |
| 20260505093045 | 68 | 360 | 9.0 | 11.0 | 0.00 | 0.00 | 0.00 | 38 | 1007.9 |
| 20260505091553 | 68 | 360 | 6.0 | 9.0 | 0.00 | 0.00 | 0.00 | 37 | 1007.7 |
| 20260505090051 | 68 | 360 | 9.0 | 11.0 | 0.00 | 0.00 | 0.00 | 38 | 1008.0 |
| 20260505084538 | 69 | 360 | 7.0 | 9.0 | 0.00 | 0.00 | 0.00 | 38 | 1008.0 |
| 20260505083043 | 69 | 360 | 5.0 | 8.0 | 0.00 | 0.00 | 0.00 | 37 | 1008.0 |
| 20260505081556 | 70 | 360 | 4.0 | 10.0 | 0.00 | 0.00 | 0.00 | 38 | 1008.0 |
| 20260505080047 | 72 | 360 | 7.0 | 9.0 | 0.00 | 0.00 | 0.00 | 35 | 1008.0 |
| 20260505074602 | 71 | 360 | 4.0 | 6.0 | 0.00 | 0.00 | 0.00 | 35 | 1008.1 |
| 20260505073038 | 71 | 360 | 4.0 | 6.0 | 0.00 | 0.00 | 0.00 | 35 | 1008.2 |
| 20260505071537 | 71 | 360 | 4.0 | 5.0 | 0.00 | 0.00 | 0.00 | 34 | 1008.3 |
| 20260505070037 | 72 | 360 | 3.0 | 8.0 | 0.00 | 0.00 | 0.00 | 34 | 1008.1 |